GW1618 Weather Reports


time (UTC)temp
F
wind
direction
speed
knots
gust
knots
rain 1hr
in
rain 24hr
in
rain mn
in
humidity
%
barometer
mb
20260505215929 61 200 2.6 5.2 0.00 0.00 0.00 67 1015.7
20260505215427 61 240 2.6 5.2 0.00 0.00 0.00 68 1015.7
20260505214918 61 268 2.6 5.2 0.00 0.00 0.00 68 1015.8
20260505214420 61 323 2.6 5.2 0.00 0.00 0.00 68 1015.8
20260505213920 61 231 1.7 3.5 0.00 0.00 0.00 68 1015.8
20260505213425 61 231 1.7 3.5 0.00 0.00 0.00 69 1015.9
20260505212926 60 302 2.6 3.5 0.00 0.00 0.00 69 1015.9
20260505212654 60 306 2.6 5.2 0.00 0.00 0.00 69 1015.9
20260505211917 61 287 1.7 5.2 0.00 0.00 0.00 68 1015.9
20260505211416 61 245 1.7 4.3 0.00 0.00 0.00 68 1015.9
20260505210939 61 306 2.6 6.1 0.00 0.00 0.00 68 1015.9
20260505205903 60 205 2.6 5.2 0.00 0.00 0.00 68 1016.0
20260505205401 60 220 2.6 3.5 0.00 0.00 0.00 68 1016.0
20260505205147 60 173 1.7 3.5 0.00 0.00 0.00 68 1016.0
20260505204401 60 192 1.7 3.5 0.00 0.00 0.00 68 1016.0
20260505203901 60 204 1.7 5.2 0.00 0.00 0.00 68 1016.0
20260505203649 60 298 1.7 5.2 0.00 0.00 0.00 68 1016.0
20260505202901 60 229 1.7 4.3 0.00 0.00 0.00 68 1016.0
20260505202405 60 202 2.6 5.2 0.00 0.00 0.00 68 1016.0
20260505202144 60 281 2.6 5.2 0.00 0.00 0.00 69 1015.9
20260505201404 60 277 2.6 5.2 0.00 0.00 0.00 69 1015.9
20260505200904 59 267 1.7 6.1 0.00 0.00 0.00 70 1015.9
20260505200404 59 232 2.6 6.1 0.00 0.00 0.00 69 1016.0
20260505200148 59 223 3.5 6.1 0.00 0.00 0.00 69 1016.0
20260505195405 59 200 2.6 6.1 0.00 0.00 0.00 70 1016.0
20260505195151 59 232 2.6 6.1 0.00 0.00 0.00 69 1016.0
20260505194407 59 200 1.7 5.2 0.00 0.00 0.00 70 1016.0
20260505193905 59 225 1.7 4.3 0.00 0.00 0.00 72 1016.0
20260505193357 59 335 2.6 5.2 0.00 0.00 0.00 72 1016.0
20260505192844 59 295 2.6 4.3 0.00 0.00 0.00 71 1016.0
20260505192339 58 229 3.5 6.1 0.00 0.00 0.00 72 1016.0
20260505191841 58 204 4.3 8.7 0.00 0.00 0.00 71 1015.9
20260505191341 58 229 4.3 8.7 0.00 0.00 0.00 71 1015.9
20260505190900 58 271 2.6 7.8 0.00 0.00 0.00 70 1015.9
20260505185836 58 223 3.5 5.2 0.00 0.00 0.00 71 1016.0
20260505185334 58 326 3.5 6.1 0.00 0.00 0.00 71 1016.0
20260505184835 58 282 3.5 6.1 0.00 0.00 0.00 71 1016.0
20260505184334 58 253 2.6 5.2 0.00 0.00 0.00 72 1016.0
20260505183834 58 264 3.5 8.7 0.00 0.00 0.00 72 1016.0
20260505183332 58 228 3.5 8.7 0.00 0.00 0.00 72 1016.0
20260505182852 58 304 2.6 6.1 0.00 0.00 0.00 72 1016.0
20260505182111 58 230 2.6 6.1 0.00 0.00 0.00 72 1015.9
20260505181604 57 208 4.3 9.6 0.00 0.00 0.00 72 1015.9
20260505180832 57 265 3.5 9.6 0.00 0.00 0.00 72 1015.9
20260505180319 58 291 2.6 5.2 0.00 0.00 0.00 72 1015.9
20260505175816 58 242 2.6 5.2 0.00 0.00 0.00 72 1015.9
20260505175311 57 231 2.6 6.1 0.00 0.00 0.00 73 1015.9
20260505174804 57 204 3.5 6.1 0.00 0.00 0.00 73 1015.8
20260505174257 57 282 2.6 6.1 0.00 0.00 0.00 73 1015.8
20260505173751 57 209 2.6 6.1 0.00 0.00 0.00 73 1015.8
20260505173245 57 285 3.5 7.0 0.00 0.00 0.00 73 1015.6
20260505172732 57 252 2.6 7.0 0.00 0.00 0.00 73 1015.6
20260505172231 57 268 2.6 5.2 0.00 0.00 0.00 73 1015.6
20260505171722 57 211 2.6 5.2 0.00 0.00 0.00 73 1015.5
20260505171221 57 189 2.6 6.1 0.00 0.00 0.00 73 1015.5
20260505170954 57 234 2.6 6.1 0.00 0.00 0.00 73 1015.5
20260505170213 57 241 3.5 8.7 0.00 0.00 0.00 74 1015.5
20260505165738 57 154 2.6 8.7 0.00 0.00 0.00 74 1015.5
20260505164714 57 247 2.6 7.8 0.00 0.00 0.00 74 1015.5
20260505164212 57 270 1.7 5.2 0.00 0.00 0.00 74 1015.5
20260505163709 57 283 2.6 7.8 0.00 0.00 0.00 74 1015.5
20260505163210 56 274 3.5 7.8 0.00 0.00 0.00 75 1015.4
20260505162707 56 242 2.6 7.0 0.00 0.00 0.00 73 1015.4
20260505162206 56 249 2.6 8.7 0.00 0.00 0.00 75 1015.4
20260505161704 56 211 3.5 8.7 0.00 0.00 0.00 76 1015.2
20260505161201 56 198 2.6 8.7 0.00 0.00 0.00 76 1015.2
20260505160701 56 220 2.6 5.2 0.00 0.00 0.00 76 1015.2
20260505160201 56 223 2.6 5.2 0.00 0.00 0.00 77 1015.2
20260505152701 56 196 3.5 7.8 0.00 0.00 0.00 78 1015.0
20260505152202 56 249 2.6 7.8 0.00 0.00 0.00 78 1015.0
20260505151703 56 197 3.5 6.1 0.00 0.00 0.00 79 1015.0
20260505151201 56 191 3.5 6.1 0.00 0.00 0.00 79 1015.0
20260505150701 56 185 2.6 7.0 0.00 0.00 0.00 79 1015.0
20260505150201 56 171 4.3 8.7 0.00 0.00 0.00 78 1014.8
20260505140203 56 194 1.7 3.5 0.00 0.00 0.00 80 1014.4
20260505130139 55 257 0.9 1.7 0.00 0.00 0.00 80 1013.9
20260505124630 55 254 1.7 3.5 0.00 0.00 0.00 80 1013.9
20260505124129 55 258 1.7 3.5 0.00 0.00 0.00 80 1013.9
20260505123628 55 259 0.9 2.6 0.00 0.00 0.00 80 1013.9
20260505123134 55 266 1.7 3.5 0.00 0.00 0.00 80 1013.7
20260505122618 55 264 1.7 3.5 0.00 0.00 0.00 80 1013.7
20260505122109 55 231 1.7 3.5 0.00 0.00 0.00 80 1013.6
20260505121603 55 258 1.7 2.6 0.00 0.00 0.00 80 1013.6
20260505121347 55 252 1.7 3.5 0.00 0.00 0.00 80 1013.6
20260505120557 55 243 1.7 4.3 0.00 0.00 0.00 80 1013.4
20260505120056 55 226 1.7 4.3 0.00 0.00 0.00 80 1013.4
20260505115551 55 226 1.7 3.5 0.00 0.00 0.00 80 1013.4
20260505115045 55 211 1.7 3.5 0.00 0.00 0.00 80 1013.4
20260505114545 55 269 1.7 3.5 0.00 0.00 0.00 80 1013.4
20260505114044 55 223 0.9 3.5 0.00 0.00 0.00 80 1013.4
20260505113541 55 220 0.9 2.6 0.00 0.00 0.00 81 1013.4
20260505113044 55 252 1.7 2.6 0.00 0.00 0.00 81 1013.4
20260505112557 55 240 0.9 2.6 0.00 0.00 0.00 81 1013.4
20260505111531 55 221 0.9 1.7 0.00 0.00 0.00 81 1013.4
20260505111315 55 221 1.7 2.6 0.00 0.00 0.00 81 1013.4
20260505110820 55 254 1.7 2.6 0.00 0.00 0.00 80 1013.3
20260505101506 55 181 2.6 5.2 0.00 0.00 0.00 81 1013.0
20260505101005 55 220 1.7 3.5 0.00 0.00 0.00 81 1013.0
20260505100511 55 171 1.7 3.5 0.00 0.00 0.00 81 1013.0
20260505100003 55 173 1.7 2.6 0.00 0.00 0.00 81 1013.0
20260505095503 55 226 0.9 2.6 0.00 0.00 0.00 82 1013.0
20260505095003 55 184 0.9 2.6 0.00 0.00 0.00 82 1012.9
20260505094504 55 232 0.9 2.6 0.00 0.00 0.00 82 1012.9
20260505094005 55 223 0.9 1.7 0.00 0.00 0.00 82 1012.9
20260505093502 55 229 0.9 1.7 0.00 0.00 0.00 82 1012.8
20260505093240 54 241 0.9 2.6 0.00 0.00 0.00 82 1012.8
20260505092458 54 154 0.9 2.6 0.00 0.00 0.00 82 1012.8
20260505091951 54 267 0.9 1.7 0.00 0.00 0.00 82 1012.8
20260505091721 54 267 0.9 2.6 0.00 0.00 0.00 82 1012.8
20260505090941 54 305 0.9 2.6 0.00 0.00 0.00 82 1012.8
20260505090713 54 291 1.7 2.6 0.00 0.00 0.00 82 1012.7
20260505090209 54 260 0.9 2.6 0.00 0.00 0.00 82 1012.7
20260505085431 54 233 1.7 2.6 0.00 0.00 0.00 82 1012.7
20260505084930 54 233 1.7 2.6 0.00 0.00 0.00 82 1012.8
20260505084705 54 251 0.9 2.6 0.00 0.00 0.00 82 1012.8
20260505083929 54 225 0.9 3.5 0.00 0.00 0.00 82 1012.8
20260505083428 54 208 1.7 4.3 0.00 0.00 0.00 82 1012.7
20260505082927 54 211 2.6 4.3 0.00 0.00 0.00 82 1012.7
20260505082423 54 200 2.6 3.5 0.00 0.00 0.00 82 1012.7
20260505081921 54 152 1.7 3.5 0.00 0.00 0.00 81 1012.7
20260505081415 54 130 1.7 2.6 0.00 0.00 0.00 81 1012.7
20260505080914 54 132 1.7 2.6 0.00 0.00 0.00 81 1012.7
20260505080404 54 149 1.7 3.5 0.00 0.00 0.00 81 1012.7
20260505075903 54 148 2.6 3.5 0.00 0.00 0.00 81 1012.7
20260505075403 54 150 2.6 4.3 0.00 0.00 0.00 81 1012.7
20260505074859 54 148 2.6 4.3 0.00 0.00 0.00 81 1012.5
20260505074358 54 148 1.7 3.5 0.00 0.00 0.00 81 1012.5
20260505073852 54 121 1.7 3.5 0.00 0.00 0.00 81 1012.5
20260505073351 54 135 1.7 3.5 0.00 0.00 0.00 80 1012.3
20260505072848 54 162 1.7 3.5 0.00 0.00 0.00 80 1012.3
20260505072625 55 157 1.7 3.5 0.00 0.00 0.00 80 1012.3
20260505071847 55 150 1.7 3.5 0.00 0.00 0.00 80 1012.2
20260505071342 55 152 1.7 3.5 0.00 0.00 0.00 80 1012.2
20260505070844 55 175 2.6 4.3 0.00 0.00 0.00 80 1012.2
20260505070356 55 146 3.5 4.3 0.00 0.00 0.00 79 1011.8
20260505065615 55 164 2.6 5.2 0.00 0.00 0.00 78 1011.8
20260505064833 55 149 1.7 4.3 0.00 0.00 0.00 79 1011.8
20260505064324 55 126 0.9 3.5 0.00 0.00 0.00 79 1011.8
20260505063823 56 269 1.7 3.5 0.00 0.00 0.00 79 1011.8
20260505063323 56 324 1.7 3.5 0.00 0.00 0.00 79 1011.6
20260505062827 56 330 1.7 3.5 0.00 0.00 0.00 79 1011.6
20260505062609 56 319 1.7 3.5 0.00 0.00 0.00 79 1011.6
20260505061819 56 330 2.6 4.3 0.00 0.00 0.00 79 1011.4
20260505061312 56 335 3.5 4.3 0.00 0.00 0.00 79 1011.4
20260505060808 56 321 2.6 3.5 0.00 0.00 0.00 78 1011.4
20260505060309 56 331 2.6 3.5 0.00 0.00 0.00 78 1011.4
20260505055803 56 336 1.7 3.5 0.00 0.00 0.00 78 1011.4
20260505055331 56 325 2.6 4.3 0.00 0.00 0.00 77 1011.4
20260505054305 56 292 3.5 4.3 0.00 0.00 0.00 77 1011.3
20260505053805 56 323 1.7 4.3 0.00 0.00 0.00 76 1011.3
20260505053259 56 302 1.7 4.3 0.00 0.00 0.00 76 1011.3
20260505052753 57 265 2.6 5.2 0.00 0.00 0.00 76 1011.3
20260505052246 57 308 3.5 5.2 0.00 0.00 0.00 76 1011.3
20260505051738 57 308 2.6 6.1 0.00 0.00 0.00 76 1011.3
20260505051236 57 319 1.7 6.1 0.00 0.00 0.00 76 1011.3
20260505050734 57 256 1.7 3.5 0.00 0.00 0.00 76 1011.3
20260505050511 57 321 1.7 4.3 0.00 0.00 0.00 76 1011.2
20260505041731 58 352 3.5 7.8 0.00 0.00 0.00 73 1010.7
20260505041228 58 283 2.6 7.8 0.00 0.00 0.00 73 1010.7
20260505040730 58 335 3.5 8.7 0.00 0.00 0.00 73 1010.7
20260505040229 58 340 4.3 10.4 0.00 0.00 0.00 72 1010.5
20260505035732 58 359 5.2 10.4 0.00 0.00 0.00 72 1010.5
20260505035258 58 326 4.3 8.7 0.00 0.00 0.00 72 1010.5
20260505034515 59 334 6.1 13.0 0.00 0.00 0.00 71 1010.3
20260505034021 59 324 6.1 13.0 0.00 0.00 0.00 70 1010.3
20260505033259 60 4 4.3 10.4 0.00 0.00 0.00 69 1010.2
20260505032228 60 320 7.8 14.8 0.00 0.00 0.00 68 1010.2
20260505032017 61 301 6.1 14.8 0.00 0.00 0.00 67 1010.1
20260505031519 62 344 3.5 8.7 0.00 0.00 0.00 65 1010.1
20260505030729 62 38 4.3 9.6 0.00 0.00 0.00 64 1010.1
20260505030229 62 323 4.3 10.4 0.00 0.00 0.00 64 1009.8
20260505025729 63 354 2.6 10.4 0.00 0.00 0.00 62 1009.8
20260505025231 64 248 3.5 9.6 0.00 0.00 0.00 62 1009.8
20260505024736 64 47 5.2 12.2 0.00 0.00 0.00 61 1009.7
20260505024231 65 352 6.1 12.2 0.00 0.00 0.00 60 1009.7
20260505023729 65 288 5.2 12.2 0.00 0.00 0.00 59 1009.7
20260505023228 66 350 3.5 12.2 0.00 0.00 0.00 57 1009.6
20260505022729 67 57 2.6 6.1 0.00 0.00 0.00 56 1009.6
20260505022231 67 283 2.6 6.1 0.00 0.00 0.00 56 1009.6
20260505021733 67 290 3.5 7.8 0.00 0.00 0.00 55 1009.5
20260505021232 67 313 5.2 10.4 0.00 0.00 0.00 55 1009.5
20260505020733 67 325 6.1 13.0 0.00 0.00 0.00 55 1009.5
20260505020231 67 9 7.0 14.8 0.00 0.00 0.00 55 1009.4
20260505015729 67 300 7.8 14.8 0.00 0.00 0.00 54 1009.4
20260505015231 67 318 6.1 11.3 0.00 0.00 0.00 54 1009.4
20260505014729 68 348 6.1 12.2 0.00 0.00 0.00 54 1009.4
20260505014224 68 315 7.0 13.9 0.00 0.00 0.00 53 1009.4
20260505013714 68 306 7.8 14.8 0.00 0.00 0.00 53 1009.4
20260505013215 68 298 7.8 14.8 0.00 0.00 0.00 54 1009.3
20260505012715 68 315 9.6 16.5 0.00 0.00 0.00 53 1009.3
20260505012241 68 322 10.4 16.5 0.00 0.00 0.00 53 1009.3
20260505011209 69 280 10.4 15.6 0.00 0.00 0.00 53 1009.2
20260505010709 69 304 10.4 19.1 0.00 0.00 0.00 52 1009.2
20260505010209 69 298 10.4 19.1 0.00 0.00 0.00 52 1009.2
20260505005955 70 288 10.4 16.5 0.00 0.00 0.00 51 1009.2
20260505005215 70 308 10.4 16.5 0.00 0.00 0.00 51 1009.2
20260505004707 70 298 9.6 16.5 0.00 0.00 0.00 51 1009.2
20260505004206 71 319 8.7 17.4 0.00 0.00 0.00 50 1009.2
20260505003705 71 257 10.4 17.4 0.00 0.00 0.00 50 1009.2
20260505003446 71 302 11.3 15.6 0.00 0.00 0.00 49 1009.2
20260505002703 71 325 10.4 15.6 0.00 0.00 0.00 48 1009.2
20260505002204 72 301 9.6 15.6 0.00 0.00 0.00 47 1009.2
20260505001703 72 292 10.4 15.6 0.00 0.00 0.00 48 1009.0
20260505001203 72 300 9.6 15.6 0.00 0.00 0.00 48 1009.0
20260505000703 73 252 8.7 15.6 0.00 0.00 0.00 47 1009.0
20260505000204 73 294 7.8 14.8 0.00 0.00 0.00 47 1008.9
20260504235942 73 321 7.0 14.8 0.00 0.00 0.00 46 1008.9
20260504235203 73 304 7.0 10.4 0.00 0.00 0.00 47 1008.9
20260504234703 73 308 9.6 16.5 0.00 0.00 0.00 48 1009.1
20260504234203 73 323 11.3 17.4 0.00 0.00 0.00 47 1009.1
20260504233942 73 4 10.4 17.4 0.00 0.00 0.00 47 1009.1
20260504233203 73 331 9.6 17.4 0.00 0.00 0.00 47 1009.1
20260504232704 73 338 10.4 16.5 0.00 0.00 0.00 47 1009.1
20260504232203 73 323 12.2 17.4 0.00 0.00 0.00 46 1009.1
20260504231703 73 332 10.4 17.4 0.00 0.00 0.00 46 1009.1
20260504231202 74 343 9.6 14.8 0.00 0.00 0.00 45 1009.1
20260504230726 74 344 8.7 14.8 0.00 0.00 0.00 47 1009.1
20260504225701 74 344 8.7 13.0 0.00 0.00 0.00 46 1009.2
20260504225200 74 359 7.8 13.9 0.00 0.00 0.00 46 1009.2
20260504224658 74 342 7.8 13.9 0.00 0.00 0.00 45 1009.4
20260504224200 74 344 7.0 12.2 0.00 0.00 0.00 47 1009.4
20260504223948 74 335 7.8 12.2 0.00 0.00 0.00 47 1009.4
20260504223437 74 333 7.0 12.2 0.00 0.00 0.00 47 1009.6
20260504222644 73 331 7.8 13.9 0.00 0.00 0.00 47 1009.6
20260504222138 73 327 8.7 13.9 0.00 0.00 0.00 47 1009.6
20260504221924 73 19 8.7 13.0 0.00 0.00 0.00 50 1009.6
20260504221135 73 325 8.7 13.0 0.00 0.00 0.00 49 1009.6
20260504220639 73 9 7.8 13.0 0.00 0.00 0.00 49 1009.6
20260504220135 73 17 7.8 12.2 0.00 0.00 0.00 49 1009.7